Theta_e
294 294 294 295 297 298 298 298 298 299 299 298 298 297 297 297 298 300 302 303 303 303 305 308 311 315 317 318 318 319 321 325
294 294 295 296 296 297 297 297 297 297 297 297 296 297 297 297 297 297 298 300 300 301 303 307 309 311 315 318 318 318 319 321
295 294 295 295 296 297 297 296 296 297 296 296 296 297 297 298 298 298 298 299 301 302 303 304 305 306 309 314 316 316 318 320
294 294 295 295 295 296 296 296 296 297 295 295 296 298 298 298 298 299 298 298 299 299 300 301 302 304 303 305 310 314 317 318
292 294 294 294 294 294 294 295 296 295 295 296 298 298 298 298 298 298 298 298 298 298 301 301 302 303 301 302 305 311 314 316
293 294 294 294 294 295 295 295 294 294 295 296 297 297 297 298 298 298 298 298 297 297 298 300 301 302 301 301 303 310 313 315
294 294 294 294 294 294 294 293 294 294 294 295 296 297 297 297 297 298 298 298 297 297 298 299 301 302 301 300 302 311 313 314
293 293 293 293 293 294 292 292 293 293 294 295 296 296 297 297 298 299 299 299 298 298 298 299 301 303 303 299 301 309 313 313
293 293 292 292 293 293 291 291 291 294 294 295 295 296 297 299 299 300 299 298 298 297 298 300 301 303 305 300 299 312 312 313
293 292 291 292 293 292 290 290 292 293 293 294 294 296 298 300 298 298 299 298 296 296 298 300 302 304 303 301 297 298 306 313
293 292 291 292 292 291 289 290 292 292 292 292 294 296 299 299 297 297 297 297 296 296 298 300 302 307 310 299 298 297 297 307
292 291 290 289 291 291 291 291 292 291 290 292 294 296 299 299 298 298 297 297 297 298 299 300 303 307 312 312 309 305 298 307
291 290 290 289 290 290 291 291 291 290 290 292 293 295 298 299 299 298 298 299 298 296 298 300 300 304 309 302 302 309 314 307
289 289 289 289 290 290 290 290 290 289 289 291 292 295 298 300 299 299 296 294 294 294 292 293 299 298 294 293 293 297 296 299
288 288 288 289 288 289 290 289 289 289 289 291 293 294 297 299 299 300 298 299 297 295 293 293 293 297 294 293 293 295 296 303
289 288 287 287 287 287 289 289 288 289 289 291 291 293 298 300 300 301 300 299 299 301 298 293 292 293 293 293 295 300 308 305
288 286 285 285 286 286 289 288 287 288 288 289 289 292 294 295 299 300 300 300 301 300 302 300 299 296 296 297 300 310 307 306
284 282 282 283 284 286 288 287 286 286 287 287 287 289 290 291 292 295 298 298 299 299 300 299 299 304 307 307 308 309 309 308
285 283 282 282 283 285 286 286 286 285 285 285 286 286 286 287 288 289 291 293 294 297 299 299 288 300 302 305 307 307 308 310
284 283 282 282 284 284 284 284 285 283 283 284 284 284 284 285 285 286 287 288 290 292 295 298 290 300 300 302 303 305 307 308
Wind_Speed
6 6 6 7 10 10 11 10 8 9 11 11 12 12 12 12 13 13 13 10 12 14 16 16 14 13 12 12 12 12 12 12
8 7 7 6 8 9 10 10 9 10 11 11 12 12 13 13 14 14 15 15 16 15 16 16 14 14 14 13 12 13 14 13
7 9 10 9 11 11 12 12 11 11 12 13 13 13 13 14 13 13 13 14 15 16 17 17 15 16 13 15 14 15 16 12
10 11 12 14 13 12 12 12 13 12 13 14 13 13 14 14 15 15 15 14 15 17 17 17 17 14 21 21 18 11 13 13
12 14 12 11 14 13 13 13 13 13 13 13 14 14 15 15 16 16 16 15 14 15 16 15 15 16 20 21 27 14 10 13
14 11 11 12 13 12 12 13 13 12 13 14 15 16 17 17 17 17 16 14 13 13 15 14 14 14 23 23 27 12 9 14
10 10 12 12 12 12 13 14 11 12 14 15 16 16 17 18 18 18 15 12 11 12 14 15 15 15 20 20 14 6 11 14
11 12 12 11 11 12 13 12 13 13 14 16 16 17 17 17 18 15 10 10 11 10 13 14 16 16 18 15 8 7 9 10
11 11 11 11 11 11 12 12 13 14 15 16 17 16 16 14 15 12 9 9 9 11 12 12 14 15 13 13 13 6 8 8
11 11 11 11 10 11 12 13 14 15 15 16 16 16 13 10 13 11 10 9 10 10 10 11 9 11 13 9 11 12 11 8
10 10 11 10 10 10 13 14 14 15 15 16 15 15 13 11 11 11 9 8 7 7 8 9 9 7 6 9 9 10 12 10
10 11 12 12 12 11 11 13 14 14 15 15 14 13 13 12 9 8 7 6 6 7 8 8 9 7 6 2 3 4 9 1
10 10 11 12 13 12 12 13 14 14 13 13 12 11 13 12 10 7 6 5 5 7 8 8 9 9 4 5 6 4 4 9
10 11 11 13 12 12 13 14 13 13 12 10 11 10 10 9 9 8 7 9 13 12 11 9 8 9 7 9 11 7 13 13
11 12 12 13 13 13 14 15 14 13 11 12 11 11 9 9 10 8 7 9 12 12 9 13 5 8 11 10 11 17 15 7
10 11 12 13 13 15 15 16 15 13 12 18 10 10 10 9 9 8 5 6 9 10 8 5 8 9 13 15 12 13 8 5
10 10 13 14 15 16 16 17 16 14 12 11 12 10 10 12 10 9 8 7 7 8 10 11 12 13 13 13 13 7 7 4
11 12 14 14 14 16 16 17 15 12 11 20 16 11 10 11 10 10 9 9 8 7 7 9 10 10 5 6 6 8 7 5
8 9 13 13 14 14 15 17 15 11 10 11 18 11 11 11 10 10 10 10 11 9 8 8 9 7 10 10 8 7 6 5
10 11 14 14 14 13 14 16 14 12 11 11 11 11 11 11 11 10 10 10 11 10 11 11 12 7 6 5 6 7 5 3
Wind_Direction
332 324 325 326 333 333 331 323 319 329 321 316 305 293 287 287 290 291 281 275 282 285 288 275 265 262 260 255 253 254 247 238
325 323 324 320 327 314 311 318 321 306 297 290 287 288 286 281 280 284 289 290 288 283 275 266 268 266 259 249 246 250 248 243
312 318 323 322 315 320 319 312 303 299 296 295 288 283 282 283 283 283 284 286 287 280 275 267 271 267 262 255 249 249 244 242
321 318 317 321 318 315 311 304 307 305 294 287 290 292 297 293 288 283 278 276 280 279 273 267 265 260 258 253 251 258 260 262
315 322 317 318 317 314 307 305 301 295 291 295 302 298 293 290 288 282 276 274 276 277 278 260 263 268 263 259 259 254 262 263
321 315 315 314 313 305 305 301 296 297 306 307 303 305 301 296 291 283 274 269 271 276 279 267 266 268 262 257 250 243 256 259
312 320 312 311 311 313 305 302 302 313 309 307 307 301 299 298 293 289 275 267 269 275 279 269 269 274 267 258 235 238 248 254
323 318 312 312 316 308 303 309 318 311 309 306 304 301 298 301 304 305 283 268 269 277 279 276 281 274 272 262 238 235 246 249
324 318 314 314 314 309 310 319 309 306 308 305 303 300 300 301 310 307 286 280 280 285 281 273 275 273 279 262 235 238 245 251
330 325 321 319 319 317 323 311 307 310 309 306 302 300 299 303 308 309 299 290 291 291 288 285 277 271 249 252 248 230 247 243
329 326 324 329 329 332 315 312 313 314 310 304 303 303 298 301 300 303 300 295 293 300 296 293 288 285 278 245 265 274 277 244
337 338 336 334 338 328 315 316 318 313 307 307 306 313 308 309 299 296 302 304 320 314 314 314 316 287 280 252 250 251 250 231
340 339 338 336 332 333 332 327 323 317 313 310 315 315 311 314 307 310 302 285 275 305 308 303 304 305 302 302 284 244 178 112
346 343 339 338 334 338 338 337 330 322 322 320 318 312 315 315 316 324 291 256 282 285 265 269 293 266 328 291 238 225 130 136
354 343 343 339 341 342 345 343 337 335 331 328 327 327 321 324 326 345 342 322 308 309 311 333 0 296 309 306 181 150 128 89
348 346 350 347 346 350 346 349 345 342 344 345 338 331 333 337 340 351 353 337 329 338 348 0 22 9 340 356 119 118 103 75
351 357 2 358 353 353 351 353 353 351 351 350 344 343 345 348 345 347 348 349 355 355 358 7 355 345 332 8 54 71 92 93
6 3 360 359 357 350 353 354 355 353 354 358 3 356 352 355 355 351 350 352 352 358 1 0 357 353 7 28 35 50 59 82
3 6 6 2 355 357 356 358 3 356 356 356 2 5 0 359 355 358 356 353 354 351 358 1 350 7 5 9 26 28 31 43
12 13 14 7 3 7 5 6 6 7 3 2 3 4 359 360 1 0 359 358 354 355 355 352 351 22 16 26 18 17 349 0